User: anonymous   Login
Location: Beuvrequen
(50.8014°N, 1.6652°E)
Time: 16:41:53
(UTC+00:00)
Language:

Genesis I - Orbit

View from above orbital plane
View from above orbital plane
View from above satellite
View from above satellite

Ground track
Ground track

The orbit data is extracted from the following two-line orbital elements,

1 29252U 06029A   22018.84740048  .00002779  00000-0  13498-3 0  9998
2 29252  64.5198 201.8673 0058934 285.3921  74.0697 15.19348929856239
Epoch (UTC): 18 January 2022 20:20:15
Eccentricity: 0.0058934
inclination: 64.5198°
perigee height: 467 km
apogee height: 548 km
right ascension of ascending node: 201.8673°
argument of perigee: 285.3921°
revolutions per day: 15.19348929
mean anomaly at epoch: 74.0697°
orbit number at epoch: 85623

The dashed part of the orbit path shows where the satellite is in the earth's shadow,  

DLR